[[{"header":{"parameterUnit":"m.s-1","parameterCategory":2,"la1":30.2991,"la2":30.254,"lo1":-89.0895,"lo2":-89.0444,"dy":0.0017,"dx":0.0017,"nx":28,"ny":28,"refTime":"2025-11-04T09:00:00:Z","depth":"0","parameterNumber":2,"parameterNumberName":"U-component_of_CURRENTS"},"data":[0,0,0,0,0,0,0,0,0,0,0,0,0,0,0,0,0,0,0,0,0,0,0,0,0,0,0,0,0,0,0,0,0,0,0,0,0,0,0,0,0,0,0,0,0,0,0,0,0,0,0,0,0,0,0,0,0,0,-0.2584,-0.2584,0,-0.2596,-0.2596,-0.2596,-0.2586,-0.2585,-0.2585,-0.2585,-0.2563,-0.2562,-0.2562,0,0,0,0,0,0,0,0,0,0,0,0,0,-0.2527,-0.2528,-0.2584,-0.2584,-0.2585,-0.2596,-0.2596,-0.2596,-0.2586,-0.2585,-0.2585,-0.2585,-0.2563,-0.2562,-0.2562,0,0,0,0,0,0,0,0,0,0,0,0,0,-0.2545,-0.2529,-0.2584,-0.2582,-0.2582,-0.2596,-0.2596,-0.2596,-0.2586,-0.2585,-0.2585,-0.2584,-0.2563,-0.2562,-0.2562,-0.2568,0,0,-0.2561,-0.256,0,0,0,0,0,0,0,0,-0.2544,-0.2547,-0.2582,-0.2582,-0.2582,-0.259,-0.2568,-0.2586,-0.2586,-0.2583,-0.2585,-0.2584,-0.257,-0.2569,-0.2571,-0.2567,-0.2566,-0.2561,-0.256,-0.256,-0.256,0,0,0,0,0,0,0,-0.2543,-0.2547,-0.2587,-0.2582,-0.2582,-0.2572,-0.2574,-0.2571,-0.2577,-0.2583,-0.2583,-0.2586,-0.257,-0.2571,-0.257,-0.2566,-0.2561,-0.256,-0.256,-0.256,-0.2591,-0.2592,0,0,0,0,0,0,-0.2547,-0.2546,-0.2587,-0.2588,-0.2564,-0.2574,-0.2576,-0.2587,-0.2578,-0.2577,-0.2587,-0.2586,-0.2572,-0.257,-0.2569,-0.2587,-0.256,-0.256,-0.2559,-0.259,-0.2592,-0.2593,0,0,0,0,0,0,-0.2546,-0.2551,-0.2586,-0.2568,-0.2572,-0.2575,-0.2587,-0.2587,-0.2587,-0.2581,-0.2579,-0.2587,-0.2572,-0.257,-0.2576,-0.2586,-0.2559,-0.2559,-0.2589,-0.2591,-0.2592,-0.2616,0,0,0,0,0,0,-0.2544,-0.255,-0.2555,-0.2568,-0.2573,-0.2596,-0.2588,-0.2588,-0.2591,-0.259,-0.2581,-0.2578,-0.2571,-0.2577,-0.2575,-0.2584,-0.2559,-0.2587,-0.259,-0.2592,-0.2613,-0.2618,-0.2622,0,0,0,0,0,-0.2542,-0.255,-0.2556,-0.2561,-0.2581,-0.2597,-0.2598,-0.2597,-0.2592,-0.2595,-0.2594,-0.2578,-0.2589,-0.2577,-0.2575,-0.2584,-0.2586,-0.2589,-0.2591,-0.2612,-0.2617,-0.2622,0,0,0,0,0,0,-0.2516,-0.2551,-0.2557,-0.2572,-0.2585,-0.2595,-0.2596,-0.2599,-0.2601,-0.2597,-0.2589,-0.2588,-0.2599,-0.2592,-0.2579,-0.2603,-0.2586,-0.2589,-0.2603,-0.2607,-0.2612,-0.2616,-0.2558,0,0,0,0,0,-0.2517,-0.2539,-0.2562,-0.2572,-0.258,-0.2589,-0.2593,-0.2596,-0.2602,-0.2602,-0.2597,-0.2598,-0.2609,-0.2608,-0.2612,-0.262,-0.2612,-0.2628,-0.2632,-0.2635,-0.264,-0.2646,-0.2651,-0.2601,-0.2601,-0.2601,0,0,-0.2508,-0.2531,-0.254,-0.2569,-0.2577,-0.2597,-0.259,-0.2599,-0.2615,-0.26,-0.261,-0.261,-0.2616,-0.263,-0.2634,-0.2623,-0.2645,-0.2638,-0.2641,-0.2644,-0.2649,-0.2654,-0.2658,-0.2603,-0.2602,-0.2602,0,0,-0.2509,-0.2522,-0.2546,-0.2562,-0.2585,-0.2596,-0.26,-0.2614,-0.2617,-0.2631,-0.2631,-0.2642,-0.2644,-0.2657,-0.2663,-0.2694,-0.2669,-0.2691,-0.2711,-0.2717,-0.272,-0.2724,-0.2712,-0.2715,-0.269,-0.269,-0.2691,0,-0.2492,-0.2532,-0.255,-0.2578,-0.2592,-0.2598,-0.2621,-0.263,-0.2642,-0.2651,-0.2637,-0.2661,-0.2662,-0.2693,-0.2705,-0.2703,-0.2693,-0.2688,-0.2721,-0.2724,-0.2727,-0.2715,-0.2717,-0.2692,-0.2692,-0.2692,-0.2691,0,-0.2523,-0.2548,-0.2559,-0.2604,-0.262,-0.2636,-0.2659,-0.2669,-0.2671,-0.2681,-0.2701,-0.2703,-0.2717,-0.2721,-0.2722,-0.2748,-0.273,-0.2725,-0.2704,-0.2733,-0.2718,-0.272,-0.2694,-0.2693,-0.2693,-0.2693,0,0,-0.2486,-0.2567,-0.2568,-0.2596,-0.2635,-0.2651,-0.2681,-0.2712,-0.2728,-0.2733,-0.275,-0.2775,-0.2766,-0.2775,-0.2773,-0.2778,-0.2788,-0.2759,-0.2758,-0.274,-0.2785,-0.26,-0.2584,-0.2783,-0.2784,-0.2784,-0.2763,0,-0.2498,-0.2566,-0.2599,-0.2642,-0.2672,-0.2694,-0.2722,-0.2748,-0.2759,-0.2772,-0.278,-0.2793,-0.2789,-0.2789,-0.2798,-0.2794,-0.2795,-0.2794,-0.2766,-0.2765,-0.2591,-0.2581,-0.2458,-0.2413,-0.2764,-0.2764,-0.2765,0,-0.2506,-0.2556,-0.2616,-0.2675,-0.2687,-0.2711,-0.2752,-0.2776,-0.2804,-0.281,-0.2824,-0.2822,-0.2841,-0.2822,-0.2831,-0.2826,-0.2811,-0.28,-0.2799,-0.2619,-0.2583,-0.2444,-0.2402,-0.2383,-0.2767,-0.2767,-0.2766,0,-0.2479,-0.2553,-0.2607,-0.2628,-0.27,-0.2721,-0.2747,-0.2784,-0.2798,-0.2826,-0.2828,-0.2852,-0.2848,-0.2848,-0.2824,-0.2831,-0.2809,-0.2818,-0.264,-0.2628,-0.2512,-0.2486,-0.244,-0.2821,-0.2821,-0.2821,-0.2821,0,-0.2474,-0.2505,-0.2598,-0.2625,-0.2665,-0.2713,-0.274,-0.2769,-0.2798,-0.2816,-0.2837,-0.2846,-0.2853,-0.2838,-0.2825,-0.2714,-0.2812,-0.263,-0.2603,-0.2513,-0.2489,-0.2456,-0.2499,-0.282,-0.282,-0.282,-0.282,0,-0.2428,-0.2497,-0.2548,-0.2633,-0.2654,-0.2675,-0.2722,-0.2738,-0.2775,-0.2794,-0.28,-0.2835,-0.2797,-0.2771,-0.2757,-0.2684,-0.256,-0.2567,-0.244,-0.2394,-0.2154,-0.2203,-0.2131,-0.207,-0.2352,-0.2347,-0.2343,0,-0.2414,-0.2446,-0.2537,-0.2558,-0.2592,-0.2632,-0.2655,-0.2712,-0.273,-0.2789,-0.2792,-0.2767,-0.2713,-0.2588,-0.2467,-0.2349,-0.2396,-0.2165,-0.2142,-0.2098,-0.2137,-0.219,-0.2151,-0.202,-0.2014,-0.2009,-0.2004,0,-0.2365,-0.24,-0.2427,-0.2484,-0.2516,-0.2561,-0.26,-0.2613,-0.2683,-0.2678,-0.2659,-0.2615,-0.2487,-0.2276,-0.2108,-0.2048,-0.2085,-0.2046,-0.2061,-0.19,-0.1902,-0.1843,-0.2084,-0.1958,-0.1963,-0.1966,-0.1968,-0.197,-0.229,-0.2274,-0.2312,-0.234,-0.2408,-0.2448,-0.24,-0.2452,-0.2435,-0.2338,-0.2442,-0.2244,-0.2123,-0.1835,-0.1773,-0.1592,-0.1717,-0.1539,-0.1613,-0.1679,-0.1571,-0.1667,-0.146,-0.1461,-0.1463,-0.1464,-0.1465,0,-0.216,-0.2141,-0.2163,-0.2181,-0.2198,-0.2287,-0.2315,-0.2211,-0.2111,-0.2029,-0.1908,-0.1703,-0.1527,-0.1447,-0.1304,-0.1211,-0.1236,-0.1204,-0.1313,-0.1301,-0.1428,-0.1358,-0.1045,-0.1045,-0.1045,-0.1045,-0.1045,-0.1045,-0.2066,-0.2006,-0.1989,-0.1934,-0.1965,-0.1889,-0.1851,-0.1747,-0.1629,-0.136,-0.117,-0.1049,-0.1138,-0.1262,-0.1164,-0.1094,-0.1123,-0.1057,-0.1126,-0.1284,-0.1324,-0.1363,-0.1306,-0.0986,-0.0986,-0.0942,-0.0942,-0.0942]},{"header":{"parameterUnit":"m.s-1","parameterCategory":2,"la1":30.2991,"la2":30.254,"lo1":-89.0895,"lo2":-89.0444,"dy":0.0017,"dx":0.0017,"nx":28,"ny":28,"refTime":"2025-11-04T09:00:00:Z","depth":"0","parameterNumber":3,"parameterNumberName":"V-component_of_CURRENTS"},"data":[0,0,0,0,0,0,0,0,0,0,0,0,0,0,0,0,0,0,0,0,0,0,0,0,0,0,0,0,0,0,0,0,0,0,0,0,0,0,0,0,0,0,0,0,0,0,0,0,0,0,0,0,0,0,0,0,0,0,-0.06,-0.0599,0,-0.0536,-0.0535,-0.0534,-0.0492,-0.0492,-0.0492,-0.0491,-0.0406,-0.0404,-0.0401,0,0,0,0,0,0,0,0,0,0,0,0,0,-0.0628,-0.0628,-0.06,-0.0599,-0.0599,-0.0536,-0.0535,-0.0534,-0.0492,-0.0492,-0.0492,-0.0491,-0.0406,-0.0404,-0.0401,0,0,0,0,0,0,0,0,0,0,0,0,0,-0.0594,-0.0628,-0.06,-0.0572,-0.0568,-0.0536,-0.0535,-0.0533,-0.0492,-0.0492,-0.0491,-0.0491,-0.0407,-0.0404,-0.0401,-0.0383,0,0,-0.0391,-0.0389,0,0,0,0,0,0,0,0,-0.0596,-0.0592,-0.0576,-0.0573,-0.057,-0.0523,-0.0513,-0.0483,-0.0492,-0.0519,-0.0491,-0.0491,-0.0444,-0.0438,-0.0424,-0.0379,-0.0376,-0.0391,-0.0389,-0.0387,-0.0386,0,0,0,0,0,0,0,-0.0598,-0.0595,-0.0572,-0.0576,-0.0572,-0.0542,-0.0538,-0.0507,-0.0481,-0.0516,-0.0514,-0.051,-0.0442,-0.0427,-0.0421,-0.0374,-0.0391,-0.0388,-0.0386,-0.0384,-0.0282,-0.0281,0,0,0,0,0,0,-0.0613,-0.0597,-0.0574,-0.0571,-0.0585,-0.0543,-0.0537,-0.0537,-0.0482,-0.0474,-0.051,-0.0508,-0.0433,-0.0425,-0.0418,-0.0402,-0.0387,-0.0384,-0.0382,-0.0282,-0.0281,-0.0281,0,0,0,0,0,0,-0.0614,-0.0612,-0.0577,-0.0584,-0.0577,-0.0543,-0.0542,-0.0536,-0.052,-0.0478,-0.0469,-0.0501,-0.0432,-0.0423,-0.0379,-0.0398,-0.0383,-0.038,-0.0283,-0.0282,-0.0281,-0.0364,0,0,0,0,0,0,-0.0615,-0.0613,-0.0617,-0.0585,-0.0578,-0.0562,-0.0543,-0.0535,-0.0519,-0.0515,-0.0467,-0.0459,-0.0432,-0.0384,-0.0376,-0.0393,-0.0377,-0.0284,-0.0283,-0.0281,-0.0362,-0.0366,-0.0369,0,0,0,0,0,-0.0617,-0.0625,-0.0617,-0.0614,-0.0585,-0.0562,-0.0556,-0.0529,-0.0518,-0.0513,-0.0471,-0.0461,-0.037,-0.0381,-0.0371,-0.0388,-0.0285,-0.0283,-0.0281,-0.0361,-0.0365,-0.0369,0,0,0,0,0,0,-0.0642,-0.0621,-0.0612,-0.0614,-0.0592,-0.0556,-0.0551,-0.0531,-0.0494,-0.049,-0.0448,-0.0436,-0.0406,-0.0374,-0.0388,-0.0349,-0.0327,-0.0323,-0.039,-0.0394,-0.0397,-0.0439,-0.0374,0,0,0,0,0,-0.0651,-0.0649,-0.0623,-0.0625,-0.0617,-0.0584,-0.0571,-0.0553,-0.0518,-0.0502,-0.0468,-0.0426,-0.0391,-0.0375,-0.0336,-0.0316,-0.0296,-0.0317,-0.0321,-0.0324,-0.0348,-0.0342,-0.0349,-0.0275,-0.0275,-0.0275,0,0,-0.0662,-0.065,-0.0649,-0.063,-0.0611,-0.0614,-0.0575,-0.0561,-0.0563,-0.0499,-0.0485,-0.0436,-0.0384,-0.036,-0.0345,-0.0339,-0.0323,-0.0322,-0.0326,-0.0348,-0.0342,-0.0349,-0.0356,-0.0274,-0.0274,-0.0274,0,0,-0.0693,-0.0673,-0.0687,-0.0673,-0.0651,-0.0632,-0.0631,-0.0596,-0.0579,-0.0551,-0.0507,-0.047,-0.0413,-0.0389,-0.0368,-0.0364,-0.0338,-0.0344,-0.0405,-0.0399,-0.0407,-0.0413,-0.0362,-0.0364,-0.0352,-0.0352,-0.0352,0,-0.0713,-0.0724,-0.0686,-0.0698,-0.0698,-0.0647,-0.0667,-0.0642,-0.0596,-0.0591,-0.0556,-0.0484,-0.0435,-0.0425,-0.0417,-0.0379,-0.0354,-0.0401,-0.0409,-0.0415,-0.042,-0.0367,-0.0368,-0.0356,-0.0355,-0.0355,-0.0354,0,-0.0755,-0.0764,-0.077,-0.0772,-0.0763,-0.0767,-0.0736,-0.0722,-0.069,-0.0667,-0.0637,-0.0564,-0.0529,-0.05,-0.0456,-0.0467,-0.0427,-0.0415,-0.0413,-0.0434,-0.0374,-0.0373,-0.0361,-0.036,-0.0359,-0.0358,0,0,-0.0806,-0.0804,-0.0806,-0.0826,-0.0804,-0.0806,-0.0808,-0.0802,-0.0814,-0.0756,-0.0767,-0.0693,-0.0653,-0.0625,-0.0566,-0.0555,-0.0543,-0.0506,-0.0504,-0.048,-0.0501,-0.0365,-0.035,-0.0541,-0.0542,-0.0543,-0.0433,0,-0.0857,-0.0899,-0.0879,-0.0923,-0.0947,-0.0909,-0.092,-0.0904,-0.0871,-0.0861,-0.0796,-0.0771,-0.0701,-0.0679,-0.066,-0.0573,-0.0551,-0.0572,-0.0463,-0.0459,-0.0358,-0.0348,-0.0271,-0.0158,-0.0432,-0.0431,-0.0431,0,-0.0907,-0.0932,-0.0984,-0.1011,-0.1018,-0.1034,-0.1047,-0.1045,-0.1015,-0.0986,-0.0956,-0.0897,-0.0854,-0.0792,-0.0691,-0.0709,-0.0618,-0.055,-0.0544,-0.0398,-0.0323,-0.0185,-0.0146,-0.0005,-0.043,-0.043,-0.043,0,-0.0966,-0.1005,-0.1051,-0.1059,-0.108,-0.11,-0.1104,-0.1089,-0.1092,-0.1065,-0.1059,-0.1002,-0.0957,-0.0871,-0.0696,-0.0708,-0.0569,-0.0568,-0.036,-0.0348,-0.025,-0.0227,-0.0089,-0.0516,-0.0516,-0.0516,-0.0516,0,-0.1028,-0.1067,-0.1085,-0.1114,-0.1177,-0.1163,-0.1209,-0.12,-0.1187,-0.1189,-0.1128,-0.1102,-0.098,-0.087,-0.0732,-0.0515,-0.0592,-0.0369,-0.0319,-0.0267,-0.0248,-0.0094,-0.0049,-0.0512,-0.0513,-0.0514,-0.0514,0,-0.1085,-0.1093,-0.1154,-0.1191,-0.1206,-0.1248,-0.1272,-0.1297,-0.1275,-0.1275,-0.1268,-0.1181,-0.1019,-0.0854,-0.0677,-0.0538,-0.024,-0.0265,-0.0178,-0.0119,0.0194,0.0233,0.0428,0.0528,-0.0045,-0.0041,-0.0038,0,-0.1121,-0.1156,-0.121,-0.1249,-0.1268,-0.1319,-0.1349,-0.1341,-0.135,-0.1302,-0.13,-0.1162,-0.1012,-0.0681,-0.0425,-0.0147,-0.0058,0.008,0.0065,0.0232,0.0309,0.0332,0.0401,0.0175,0.018,0.0184,0.0187,0,-0.1189,-0.1194,-0.1223,-0.1302,-0.1349,-0.1403,-0.1433,-0.1441,-0.141,-0.1354,-0.1242,-0.1119,-0.0818,-0.0462,-0.0104,0.0059,0.0216,0.0171,0.0296,0.046,0.0537,0.0651,0.0111,0.0222,0.0218,0.0216,0.0214,0.0213,-0.1214,-0.1231,-0.1255,-0.1323,-0.1393,-0.1435,-0.141,-0.1393,-0.1324,-0.1153,-0.113,-0.0834,-0.049,0.0035,0.0208,0.0598,0.0521,0.0707,0.0733,0.0736,0.0853,0.0425,0.0622,0.0621,0.062,0.0619,0.0618,0,-0.1227,-0.1223,-0.128,-0.132,-0.1377,-0.142,-0.1419,-0.132,-0.1146,-0.098,-0.0782,-0.0308,0.0124,0.0445,0.0927,0.1134,0.1141,0.1223,0.1236,0.1272,0.0857,0.0888,0.1211,0.1211,0.1211,0.121,0.121,0.121,-0.1217,-0.1227,-0.1225,-0.127,-0.1307,-0.1279,-0.1237,-0.1063,-0.0895,-0.0486,-0.0156,0.0034,0.0436,0.1095,0.1522,0.1564,0.1699,0.1716,0.1768,0.1444,0.1396,0.1349,0.139,0.1812,0.1813,0.218,0.2184,0.2187]}],[{"header":{"parameterUnit":"m.s-1","parameterCategory":2,"la1":30.2991,"la2":30.254,"lo1":-89.0895,"lo2":-89.0444,"dy":0.0017,"dx":0.0017,"nx":28,"ny":28,"refTime":"2025-11-04T09:00:00:Z","depth":"2","parameterNumber":2,"parameterNumberName":"U-component_of_CURRENTS"},"data":[0,0,0,0,0,0,0,0,0,0,0,0,0,0,0,0,0,0,0,0,0,0,0,0,0,0,0,0,0,0,0,0,0,0,0,0,0,0,0,0,0,0,0,0,0,0,0,0,0,0,0,0,0,0,0,0,0,0,-0.1496,-0.1497,0,-0.1523,-0.1522,-0.1522,-0.1502,-0.1502,-0.1501,-0.1501,-0.1522,-0.1523,-0.1523,0,0,0,0,0,0,0,0,0,0,0,0,0,-0.1407,-0.1409,-0.1496,-0.1497,-0.1498,-0.1523,-0.1522,-0.1522,-0.1502,-0.1502,-0.1501,-0.1501,-0.1521,-0.1522,-0.1523,0,0,0,0,0,0,0,0,0,0,0,0,0,-0.1436,-0.1409,-0.1496,-0.1495,-0.1496,-0.1523,-0.1522,-0.1522,-0.1502,-0.1502,-0.1501,-0.1501,-0.1521,-0.1522,-0.1524,-0.1543,0,0,-0.1528,-0.1528,0,0,0,0,0,0,0,0,-0.1434,-0.1438,-0.1494,-0.1495,-0.1496,-0.1513,-0.1499,-0.1531,-0.1502,-0.1494,-0.1501,-0.15,-0.1522,-0.1524,-0.1522,-0.1544,-0.1545,-0.1528,-0.1529,-0.1529,-0.153,0,0,0,0,0,0,0,-0.1432,-0.1437,-0.1501,-0.1495,-0.1496,-0.1486,-0.1489,-0.1504,-0.1507,-0.1495,-0.1495,-0.1506,-0.1522,-0.1521,-0.1522,-0.1545,-0.1528,-0.1529,-0.153,-0.153,-0.1594,-0.1595,0,0,0,0,0,0,-0.1442,-0.1436,-0.1501,-0.1503,-0.1469,-0.1489,-0.1492,-0.1504,-0.1507,-0.1508,-0.1507,-0.1505,-0.1519,-0.1521,-0.1523,-0.1556,-0.1529,-0.153,-0.1531,-0.1593,-0.1594,-0.1595,0,0,0,0,0,0,-0.144,-0.1448,-0.15,-0.1474,-0.148,-0.1492,-0.1505,-0.1505,-0.1509,-0.1517,-0.1517,-0.1513,-0.1518,-0.1521,-0.1548,-0.1556,-0.1531,-0.1532,-0.1592,-0.1594,-0.1595,-0.1616,0,0,0,0,0,0,-0.1437,-0.1447,-0.1452,-0.1475,-0.1482,-0.152,-0.1506,-0.1506,-0.152,-0.1518,-0.1522,-0.1523,-0.1518,-0.1546,-0.1549,-0.1558,-0.1533,-0.1591,-0.1593,-0.1595,-0.1614,-0.1618,-0.1621,0,0,0,0,0,-0.1434,-0.1446,-0.1452,-0.1459,-0.1491,-0.1521,-0.1523,-0.1525,-0.1521,-0.1525,-0.1534,-0.1523,-0.1558,-0.1548,-0.1552,-0.1561,-0.159,-0.1592,-0.1594,-0.1612,-0.1617,-0.1621,0,0,0,0,0,0,-0.1407,-0.1447,-0.1453,-0.1475,-0.1499,-0.1519,-0.1526,-0.1533,-0.1542,-0.1541,-0.1541,-0.1543,-0.1564,-0.1567,-0.1556,-0.1585,-0.157,-0.1573,-0.1583,-0.1587,-0.159,-0.1588,-0.1534,0,0,0,0,0,-0.1407,-0.1426,-0.1462,-0.1479,-0.1493,-0.1511,-0.1522,-0.153,-0.1547,-0.1549,-0.1554,-0.1563,-0.1575,-0.1585,-0.1592,-0.1618,-0.1611,-0.1624,-0.1628,-0.1631,-0.1632,-0.1642,-0.1647,-0.1602,-0.1602,-0.1602,0,0,-0.1399,-0.1426,-0.1434,-0.1474,-0.149,-0.1517,-0.1515,-0.1539,-0.1556,-0.1552,-0.157,-0.1575,-0.1584,-0.1604,-0.1614,-0.1609,-0.1638,-0.1633,-0.1635,-0.1635,-0.1645,-0.1649,-0.1653,-0.1603,-0.1603,-0.1603,0,0,-0.1404,-0.1422,-0.1441,-0.1466,-0.1505,-0.152,-0.1532,-0.156,-0.1565,-0.1594,-0.159,-0.1605,-0.1625,-0.1631,-0.1638,-0.167,-0.1653,-0.167,-0.169,-0.1701,-0.1704,-0.1707,-0.1694,-0.1696,-0.1676,-0.1676,-0.1676,0,-0.1391,-0.1425,-0.145,-0.1481,-0.1501,-0.1526,-0.1552,-0.1567,-0.1597,-0.1607,-0.1602,-0.1632,-0.1638,-0.1665,-0.1672,-0.1677,-0.1672,-0.1672,-0.1704,-0.1707,-0.171,-0.1696,-0.1697,-0.1677,-0.1677,-0.1677,-0.1677,0,-0.1415,-0.1442,-0.1457,-0.1503,-0.1527,-0.1553,-0.1588,-0.1606,-0.1618,-0.1632,-0.1658,-0.1667,-0.1684,-0.1688,-0.1691,-0.1715,-0.1701,-0.1703,-0.1691,-0.1715,-0.1699,-0.17,-0.1679,-0.1679,-0.1678,-0.1678,0,0,-0.1386,-0.1459,-0.1463,-0.1487,-0.154,-0.1563,-0.1597,-0.1634,-0.1655,-0.1674,-0.1698,-0.1717,-0.1718,-0.1727,-0.173,-0.1742,-0.1753,-0.1733,-0.1733,-0.1714,-0.176,-0.1693,-0.1688,-0.1761,-0.1762,-0.1763,-0.1736,0,-0.1394,-0.145,-0.1484,-0.1528,-0.1558,-0.1592,-0.1623,-0.1657,-0.1681,-0.1708,-0.1722,-0.1743,-0.1736,-0.1744,-0.1756,-0.1758,-0.1759,-0.1759,-0.1744,-0.1743,-0.1677,-0.1689,-0.1564,-0.1526,-0.1737,-0.1738,-0.1738,0,-0.1404,-0.1442,-0.1489,-0.1548,-0.1563,-0.1588,-0.1636,-0.1669,-0.1715,-0.1732,-0.1757,-0.1768,-0.1791,-0.1779,-0.1789,-0.1789,-0.1774,-0.1769,-0.1768,-0.17,-0.1679,-0.1539,-0.152,-0.174,-0.1739,-0.1739,-0.1739,0,-0.1376,-0.1442,-0.1478,-0.1499,-0.157,-0.1587,-0.1618,-0.1668,-0.17,-0.1744,-0.1769,-0.1793,-0.1807,-0.1806,-0.1785,-0.1795,-0.178,-0.1794,-0.1715,-0.1709,-0.1596,-0.1579,-0.1791,-0.1792,-0.1792,-0.1792,-0.1792,0,-0.1372,-0.1398,-0.1465,-0.1485,-0.1519,-0.1571,-0.1608,-0.1644,-0.17,-0.1731,-0.1774,-0.1788,-0.1816,-0.181,-0.1791,-0.1744,-0.1782,-0.1713,-0.1701,-0.1598,-0.1583,-0.1767,-0.1764,-0.1791,-0.1791,-0.1791,-0.1791,0,-0.1335,-0.1385,-0.1427,-0.1493,-0.151,-0.153,-0.1597,-0.1625,-0.1685,-0.1725,-0.174,-0.1792,-0.1778,-0.1778,-0.1766,-0.1742,-0.1708,-0.1674,-0.1537,-0.1509,-0.1631,-0.163,-0.1607,-0.1604,-0.1602,-0.1601,-0.1599,0,-0.132,-0.1343,-0.1414,-0.1431,-0.1456,-0.1497,-0.1524,-0.16,-0.163,-0.1708,-0.1717,-0.1736,-0.171,-0.1669,-0.1621,-0.1566,-0.1628,-0.1436,-0.1439,-0.1623,-0.1614,-0.1616,-0.1618,-0.1293,-0.1289,-0.1286,-0.1284,0,-0.128,-0.131,-0.1341,-0.1379,-0.1408,-0.1444,-0.1485,-0.151,-0.1592,-0.162,-0.1628,-0.1615,-0.1582,-0.1471,-0.1416,-0.137,-0.1441,-0.137,-0.1596,-0.1361,-0.1325,-0.1317,-0.133,-0.1256,-0.1258,-0.1261,-0.1262,-0.1263,-0.1232,-0.1244,-0.1285,-0.131,-0.1347,-0.1363,-0.1335,-0.1393,-0.1412,-0.1418,-0.1482,-0.1423,-0.1417,-0.1264,-0.1188,-0.1141,-0.1249,-0.1215,-0.1225,-0.1239,-0.1209,-0.1172,-0.1066,-0.1068,-0.1069,-0.1071,-0.1072,0,-0.1158,-0.1183,-0.121,-0.1232,-0.1227,-0.1275,-0.1281,-0.1227,-0.119,-0.125,-0.1229,-0.1113,-0.1045,-0.1041,-0.0924,-0.0904,-0.0899,-0.0874,-0.0877,-0.0905,-0.093,-0.0886,-0.0656,-0.0655,-0.0654,-0.0653,0,0,-0.1121,-0.1121,-0.114,-0.11,-0.1107,-0.1028,-0.0994,-0.0945,-0.0936,-0.0892,-0.0887,-0.0979,-0.1011,-0.0844,-0.0796,-0.0708,-0.0796,-0.0666,-0.0998,-0.1029,-0.1052,-0.1123,-0.1085,0,0,0,0,0]},{"header":{"parameterUnit":"m.s-1","parameterCategory":2,"la1":30.2991,"la2":30.254,"lo1":-89.0895,"lo2":-89.0444,"dy":0.0017,"dx":0.0017,"nx":28,"ny":28,"refTime":"2025-11-04T09:00:00:Z","depth":"2","parameterNumber":3,"parameterNumberName":"V-component_of_CURRENTS"},"data":[0,0,0,0,0,0,0,0,0,0,0,0,0,0,0,0,0,0,0,0,0,0,0,0,0,0,0,0,0,0,0,0,0,0,0,0,0,0,0,0,0,0,0,0,0,0,0,0,0,0,0,0,0,0,0,0,0,0,-0.003,-0.0029,0,0.0029,0.0029,0.003,0.008,0.008,0.0081,0.0081,0.0192,0.0195,0.0197,0,0,0,0,0,0,0,0,0,0,0,0,0,-0.0061,-0.0061,-0.003,-0.0029,-0.0029,0.0029,0.0029,0.003,0.008,0.008,0.0081,0.0082,0.0192,0.0195,0.0198,0,0,0,0,0,0,0,0,0,0,0,0,0,-0.0029,-0.0061,-0.003,0.0003,0.0006,0.0028,0.0029,0.003,0.008,0.008,0.0081,0.0082,0.0191,0.0194,0.0198,0.0206,0,0,0.0209,0.0211,0,0,0,0,0,0,0,0,-0.0031,-0.0028,-0.0003,0.0,0.0004,0.0047,0.0059,0.0092,0.008,0.0052,0.0081,0.0082,0.0148,0.0155,0.0164,0.0211,0.0216,0.021,0.0212,0.0214,0.0215,0,0,0,0,0,0,0,-0.0033,-0.003,-0.0006,-0.0002,0.0002,0.0028,0.0033,0.0066,0.0096,0.0055,0.0058,0.0064,0.015,0.0161,0.0168,0.0217,0.021,0.0213,0.0215,0.0217,0.0293,0.0293,0,0,0,0,0,0,-0.0044,-0.0032,-0.0008,-0.0005,-0.0012,0.0027,0.0033,0.0033,0.0095,0.0105,0.0063,0.0066,0.0154,0.0163,0.0172,0.0191,0.0213,0.0217,0.0219,0.0293,0.0293,0.0293,0,0,0,0,0,0,-0.0045,-0.0043,-0.0011,-0.0017,-0.0011,0.0027,0.0027,0.0034,0.0047,0.0101,0.0112,0.0069,0.0155,0.0167,0.02,0.0196,0.0219,0.0222,0.0293,0.0293,0.0293,0.0226,0,0,0,0,0,0,-0.0047,-0.0044,-0.0048,-0.0018,-0.0011,-0.0004,0.0026,0.0034,0.0049,0.0053,0.011,0.0121,0.0156,0.0194,0.0204,0.0201,0.0225,0.0294,0.0293,0.0293,0.0229,0.0224,0.0219,0,0,0,0,0,-0.0048,-0.006,-0.0049,-0.0046,-0.0019,-0.0005,0.0,0.0031,0.0048,0.0047,0.0088,0.0119,0.0199,0.0197,0.0208,0.0207,0.0294,0.0293,0.0293,0.0231,0.0225,0.0219,0,0,0,0,0,0,-0.0074,-0.0055,-0.0042,-0.0047,-0.003,0.0003,0.0005,0.0026,0.0057,0.0064,0.0117,0.013,0.0157,0.019,0.0187,0.0228,0.0251,0.0253,0.02,0.0195,0.019,0.0182,0.0228,0,0,0,0,0,-0.0083,-0.0087,-0.0063,-0.0066,-0.0061,-0.0029,-0.0019,0.0,0.0031,0.0045,0.0084,0.0127,0.0162,0.0185,0.0218,0.0241,0.0277,0.0248,0.0243,0.0239,0.024,0.029,0.029,0.0291,0.0291,0.0291,0,0,-0.0093,-0.0084,-0.0085,-0.0072,-0.0056,-0.0055,-0.0021,-0.0012,-0.0005,0.0053,0.0073,0.011,0.0164,0.0188,0.0203,0.0217,0.0255,0.0239,0.0235,0.0238,0.029,0.029,0.029,0.0291,0.0291,0.0291,0,0,-0.0119,-0.0109,-0.0121,-0.0113,-0.0095,-0.0076,-0.0076,-0.0047,-0.0029,-0.0007,0.0037,0.0072,0.0122,0.0161,0.0187,0.0179,0.0226,0.0187,0.0162,0.0209,0.021,0.0211,0.0243,0.0247,0.0188,0.0188,0.0188,0,-0.0131,-0.0144,-0.0122,-0.0132,-0.0127,-0.0089,-0.01,-0.0078,-0.0041,-0.0024,-0.0009,0.007,0.0112,0.0153,0.0148,0.0169,0.0198,0.0176,0.0203,0.0205,0.0207,0.024,0.0245,0.0185,0.0185,0.0185,0.0186,0,-0.0165,-0.0174,-0.0181,-0.018,-0.0173,-0.0177,-0.0147,-0.0134,-0.0106,-0.0077,-0.0036,0.002,0.007,0.0085,0.0115,0.0148,0.0163,0.0187,0.0214,0.0202,0.0238,0.0245,0.018,0.0181,0.0182,0.0183,0,0,-0.0193,-0.0204,-0.0207,-0.0217,-0.02,-0.0199,-0.0188,-0.0166,-0.0154,-0.0111,-0.0088,-0.0029,0.0006,0.0039,0.0082,0.0124,0.0157,0.0155,0.0159,0.0181,0.0251,0.0256,0.0265,0.0184,0.0185,0.0186,0.0265,0,-0.0225,-0.0262,-0.0251,-0.0276,-0.0292,-0.0256,-0.025,-0.0222,-0.0186,-0.0154,-0.0086,-0.0048,-0.0012,0.0012,0.0057,0.0137,0.0174,0.0133,0.0265,0.0268,0.0271,0.0273,0.0258,0.0327,0.0272,0.0273,0.0274,0,-0.0262,-0.0282,-0.0319,-0.0329,-0.0331,-0.0334,-0.0313,-0.0302,-0.0243,-0.0213,-0.0158,-0.0103,-0.0033,-0.0003,0.0123,0.0094,0.0162,0.0222,0.0227,0.0262,0.0287,0.0335,0.0343,0.0287,0.0286,0.0285,0.0284,0,-0.0302,-0.0327,-0.0361,-0.0365,-0.0368,-0.0369,-0.0361,-0.0319,-0.031,-0.0246,-0.0225,-0.0134,-0.0083,0.0016,0.0131,0.0132,0.0267,0.0289,0.0357,0.0358,0.0388,0.0389,0.0373,0.0373,0.0373,0.0373,0.0373,0,-0.0344,-0.0369,-0.0383,-0.0403,-0.0433,-0.0413,-0.0424,-0.0399,-0.036,-0.0344,-0.026,-0.022,-0.0076,0.0018,0.0122,0.0257,0.0263,0.0354,0.0383,0.0362,0.036,0.0363,0.036,0.0376,0.0375,0.0375,0.0374,0,-0.0386,-0.0395,-0.0436,-0.0451,-0.0457,-0.0478,-0.0478,-0.0483,-0.0435,-0.0408,-0.039,-0.0277,-0.0147,-0.0013,0.0157,0.0244,0.0373,0.0415,0.037,0.0391,0.0434,0.0427,0.051,0.0511,0.0512,0.0512,0.0513,0,-0.0413,-0.044,-0.0481,-0.0509,-0.0519,-0.0542,-0.0559,-0.0527,-0.0523,-0.0438,-0.0427,-0.0301,-0.0199,0.0038,0.021,0.0389,0.0392,0.0473,0.0477,0.0431,0.045,0.0442,0.0435,0.0489,0.0489,0.0489,0.0489,0,-0.0462,-0.0475,-0.051,-0.0575,-0.0606,-0.0638,-0.0649,-0.0655,-0.0602,-0.0559,-0.0471,-0.0379,-0.0147,0.006,0.0278,0.038,0.0444,0.0484,0.0466,0.0448,0.0415,0.0432,0.0425,0.0492,0.0491,0.0491,0.0491,0.0491,-0.0494,-0.0534,-0.0584,-0.0642,-0.0684,-0.0721,-0.0737,-0.0729,-0.071,-0.0627,-0.0517,-0.0353,-0.0145,0.0175,0.0333,0.0479,0.0484,0.0535,0.0532,0.053,0.0505,0.0475,0.0558,0.0558,0.0558,0.0558,0.0558,0,-0.0537,-0.0585,-0.0649,-0.0717,-0.0774,-0.0775,-0.0791,-0.0782,-0.0754,-0.0638,-0.0526,-0.028,-0.0042,0.0166,0.0406,0.0549,0.0539,0.0566,0.0535,0.0532,0.053,0.0503,0.0556,0.0557,0.0557,0.0557,0,0,-0.0563,-0.0639,-0.0677,-0.0783,-0.0826,-0.0858,-0.0861,-0.0833,-0.0746,-0.0633,-0.0491,-0.0303,-0.0023,0.0145,0.0326,0.0452,0.045,0.0456,0.0445,0.0386,0.0381,0.0503,0.0457,0,0,0,0,0]}],[{"header":{"parameterUnit":"m.s-1","parameterCategory":2,"la1":30.2991,"la2":30.254,"lo1":-89.0895,"lo2":-89.0444,"dy":0.0017,"dx":0.0017,"nx":28,"ny":28,"refTime":"2025-11-04T09:00:00:Z","depth":"4","parameterNumber":2,"parameterNumberName":"U-component_of_CURRENTS"},"data":[0,0,0,0,0,0,0,0,0,0,0,0,0,0,0,0,0,0,0,0,0,0,0,0,0,0,0,0,0,0,0,0,0,0,0,0,0,0,0,0,0,0,0,0,0,0,0,0,0,0,0,0,0,0,0,0,0,0,-0.105,-0.105,0,-0.1092,-0.1092,-0.1092,-0.111,-0.111,-0.111,-0.111,-0.1148,-0.1148,-0.1149,0,0,0,0,0,0,0,0,0,0,0,0,0,-0.0976,-0.0977,-0.105,-0.105,-0.1051,-0.1092,-0.1092,-0.1093,-0.111,-0.111,-0.111,-0.111,-0.1147,-0.1148,-0.115,0,0,0,0,0,0,0,0,0,0,0,0,0,-0.1011,-0.0978,-0.105,-0.1065,-0.1067,-0.1091,-0.1092,-0.1093,-0.111,-0.111,-0.111,-0.111,-0.1147,-0.1148,-0.115,-0.1159,0,0,-0.1154,-0.1155,0,0,0,0,0,0,0,0,-0.1009,-0.1014,-0.1062,-0.1064,-0.1066,-0.1096,-0.108,-0.1115,-0.111,-0.1093,-0.111,-0.111,-0.1131,-0.1133,-0.114,-0.1161,-0.1162,-0.1154,-0.1155,-0.1156,-0.1156,0,0,0,0,0,0,0,-0.1007,-0.1012,-0.1065,-0.1063,-0.1065,-0.1067,-0.1072,-0.1086,-0.111,-0.1094,-0.1096,-0.1102,-0.1132,-0.1139,-0.1141,-0.1163,-0.1154,-0.1156,-0.1157,-0.1157,-0.1246,-0.1247,0,0,0,0,0,0,-0.1004,-0.101,-0.1064,-0.1067,-0.1038,-0.1069,-0.1074,-0.1086,-0.111,-0.1114,-0.1102,-0.1103,-0.1136,-0.1139,-0.1142,-0.1199,-0.1156,-0.1157,-0.1158,-0.1244,-0.1246,-0.1248,0,0,0,0,0,0,-0.1002,-0.1009,-0.1062,-0.1039,-0.1046,-0.107,-0.1083,-0.1087,-0.1109,-0.1116,-0.112,-0.1122,-0.1136,-0.114,-0.1174,-0.1199,-0.1158,-0.1159,-0.1243,-0.1245,-0.1247,-0.1284,0,0,0,0,0,0,-0.1,-0.1008,-0.1024,-0.1039,-0.1048,-0.1089,-0.1083,-0.1088,-0.1112,-0.1114,-0.1135,-0.1137,-0.1136,-0.1172,-0.1176,-0.12,-0.1161,-0.1241,-0.1244,-0.1246,-0.1281,-0.1287,-0.1293,0,0,0,0,0,-0.0997,-0.1015,-0.1024,-0.1031,-0.1066,-0.109,-0.1095,-0.111,-0.1114,-0.1129,-0.1146,-0.1138,-0.1192,-0.1175,-0.1179,-0.1204,-0.124,-0.1243,-0.1246,-0.1279,-0.1286,-0.1293,0,0,0,0,0,0,-0.099,-0.1019,-0.1029,-0.1056,-0.1078,-0.1094,-0.1111,-0.1121,-0.1146,-0.1153,-0.1155,-0.116,-0.1199,-0.1199,-0.118,-0.1239,-0.1215,-0.1219,-0.1238,-0.1246,-0.1251,-0.1247,-0.1162,0,0,0,0,0,-0.0996,-0.1019,-0.1044,-0.1066,-0.108,-0.1099,-0.1114,-0.1126,-0.1146,-0.1158,-0.1173,-0.1192,-0.1213,-0.1228,-0.1245,-0.1277,-0.1265,-0.1297,-0.1303,-0.1308,-0.1308,-0.1312,-0.1318,-0.1259,-0.1259,-0.1258,0,0,-0.0998,-0.1018,-0.1031,-0.1067,-0.1085,-0.1112,-0.1108,-0.1138,-0.1164,-0.1158,-0.1202,-0.1214,-0.1227,-0.1264,-0.1281,-0.1269,-0.132,-0.1312,-0.1316,-0.1313,-0.1316,-0.1322,-0.1327,-0.1261,-0.126,-0.126,0,0,-0.1009,-0.1034,-0.1057,-0.1081,-0.1116,-0.1131,-0.1144,-0.1174,-0.1193,-0.1234,-0.1237,-0.1264,-0.1299,-0.1311,-0.1321,-0.137,-0.135,-0.1381,-0.1407,-0.1411,-0.1416,-0.142,-0.1411,-0.1413,-0.1384,-0.1384,-0.1384,0,-0.1011,-0.1044,-0.1067,-0.1096,-0.1119,-0.1142,-0.1171,-0.1197,-0.1235,-0.1252,-0.1255,-0.1309,-0.132,-0.1358,-0.1377,-0.1383,-0.1376,-0.1377,-0.1417,-0.1421,-0.1424,-0.1414,-0.1416,-0.1386,-0.1386,-0.1386,-0.1385,0,-0.1034,-0.107,-0.1086,-0.1132,-0.116,-0.119,-0.1226,-0.1259,-0.1284,-0.1303,-0.1351,-0.1368,-0.1394,-0.1409,-0.141,-0.1445,-0.143,-0.1422,-0.1394,-0.1432,-0.1419,-0.1421,-0.1389,-0.1388,-0.1388,-0.1387,0,0,-0.1013,-0.1088,-0.1095,-0.1125,-0.1183,-0.1205,-0.1257,-0.1301,-0.1331,-0.1371,-0.1403,-0.1447,-0.1449,-0.1461,-0.1467,-0.1477,-0.1495,-0.1463,-0.1462,-0.1445,-0.1497,-0.1403,-0.1395,-0.1494,-0.1494,-0.1495,-0.1479,0,-0.1025,-0.1083,-0.1119,-0.1176,-0.1208,-0.1251,-0.1294,-0.1339,-0.1375,-0.1412,-0.1437,-0.147,-0.1471,-0.1485,-0.1498,-0.1497,-0.1502,-0.15,-0.1472,-0.1471,-0.1374,-0.1395,-0.1497,-0.148,-0.148,-0.148,-0.148,0,-0.1031,-0.1072,-0.113,-0.1201,-0.1219,-0.1257,-0.1323,-0.1364,-0.1421,-0.1447,-0.1481,-0.1497,-0.1527,-0.1517,-0.1532,-0.153,-0.1518,-0.1513,-0.1512,-0.141,-0.1379,-0.1436,-0.1483,-0.1483,-0.1483,-0.1483,-0.1482,0,-0.0999,-0.1077,-0.1124,-0.115,-0.1234,-0.1268,-0.1309,-0.1372,-0.1406,-0.1463,-0.1485,-0.1523,-0.1537,-0.1541,-0.1535,-0.1536,-0.1535,-0.153,-0.1433,-0.1426,-0.1499,-0.1495,-0.1533,-0.1533,-0.1533,-0.1533,-0.1533,0,-0.0988,-0.1028,-0.1115,-0.1141,-0.1193,-0.1254,-0.1308,-0.1354,-0.1413,-0.144,-0.1494,-0.1507,-0.1545,-0.1549,-0.154,-0.1484,-0.1536,-0.1434,-0.1415,-0.1515,-0.1514,-0.1499,-0.1496,-0.1532,-0.1532,-0.1533,-0.1533,0,-0.0946,-0.1006,-0.1065,-0.1154,-0.1182,-0.1216,-0.1299,-0.1326,-0.1393,-0.1427,-0.1444,-0.1498,-0.1495,-0.1516,-0.1515,-0.1473,-0.1443,-0.141,-0.1511,-0.1498,-0.133,-0.1329,-0.1296,-0.1292,-0.1289,-0.1287,-0.1285,0,-0.0929,-0.0958,-0.1058,-0.1085,-0.1127,-0.1187,-0.122,-0.1303,-0.1324,-0.1403,-0.1399,-0.1433,-0.1453,-0.1371,-0.1409,-0.1378,-0.1364,-0.1342,-0.1341,-0.132,-0.1306,-0.1309,-0.1312,-0.128,-0.1279,-0.1279,-0.1278,0,-0.0889,-0.0935,-0.0979,-0.1033,-0.1075,-0.1118,-0.1167,-0.1174,-0.1254,-0.1332,-0.1314,-0.1311,-0.1304,-0.1298,-0.1282,-0.1264,-0.1355,-0.1311,-0.1317,-0.1316,-0.1301,-0.129,-0.1297,-0.1268,-0.1269,-0.127,-0.1271,0,-0.0852,-0.0871,-0.0928,-0.0964,-0.1014,-0.102,-0.1063,-0.1078,-0.1111,-0.1197,-0.1187,-0.1225,-0.1281,-0.1238,-0.1225,-0.1198,-0.1182,-0.1149,-0.1163,-0.1175,-0.1144,-0.1107,-0.0993,0,0,0,0,0,-0.0805,-0.0817,-0.0849,-0.088,-0.0923,-0.0944,-0.1012,-0.1053,-0.1132,-0.1085,-0.1133,-0.1119,-0.1101,-0.1126,-0.1071,-0.1172,-0.1188,-0.1105,-0.1158,-0.1211,-0.1223,-0.1199,0,0,0,0,0,0,-0.0771,-0.0805,-0.0821,-0.0795,-0.0791,-0.0821,-0.0856,-0.0911,-0.0892,-0.098,-0.0971,-0.1046,-0.104,-0.1103,-0.1042,-0.105,-0.1061,-0.1139,-0.1136,-0.1204,-0.1215,-0.1225,-0.1204,0,0,0,0,0]},{"header":{"parameterUnit":"m.s-1","parameterCategory":2,"la1":30.2991,"la2":30.254,"lo1":-89.0895,"lo2":-89.0444,"dy":0.0017,"dx":0.0017,"nx":28,"ny":28,"refTime":"2025-11-04T09:00:00:Z","depth":"4","parameterNumber":3,"parameterNumberName":"V-component_of_CURRENTS"},"data":[0,0,0,0,0,0,0,0,0,0,0,0,0,0,0,0,0,0,0,0,0,0,0,0,0,0,0,0,0,0,0,0,0,0,0,0,0,0,0,0,0,0,0,0,0,0,0,0,0,0,0,0,0,0,0,0,0,0,-0.0044,-0.0044,0,-0.0006,-0.0006,-0.0005,0.0031,0.0031,0.0032,0.0032,0.0109,0.011,0.0112,0,0,0,0,0,0,0,0,0,0,0,0,0,-0.0056,-0.0056,-0.0044,-0.0044,-0.0043,-0.0006,-0.0006,-0.0005,0.0031,0.0031,0.0032,0.0032,0.0108,0.011,0.0112,0,0,0,0,0,0,0,0,0,0,0,0,0,-0.0037,-0.0056,-0.0044,-0.0022,-0.002,-0.0006,-0.0006,-0.0005,0.0031,0.0031,0.0032,0.0032,0.0107,0.011,0.0113,0.0118,0,0,0.012,0.0122,0,0,0,0,0,0,0,0,-0.0038,-0.0036,-0.0025,-0.0023,-0.0021,0.0007,0.0018,0.0038,0.0031,0.0013,0.0032,0.0032,0.0077,0.0082,0.0089,0.0122,0.0125,0.0121,0.0122,0.0123,0.0124,0,0,0,0,0,0,0,-0.0039,-0.0037,-0.0028,-0.0025,-0.0022,-0.0004,-0.0001,0.0022,0.0043,0.0015,0.0017,0.0019,0.0079,0.0087,0.0092,0.0126,0.0121,0.0123,0.0124,0.0125,0.0185,0.0185,0,0,0,0,0,0,-0.0049,-0.0039,-0.0029,-0.0027,-0.003,-0.0004,-0.0001,-0.0001,0.0042,0.0049,0.0018,0.002,0.0082,0.0089,0.0094,0.0113,0.0123,0.0126,0.0127,0.0185,0.0185,0.0185,0,0,0,0,0,0,-0.0049,-0.0048,-0.003,-0.0033,-0.0029,-0.0005,-0.0006,-0.0001,0.0008,0.0045,0.0052,0.0023,0.0083,0.0091,0.0113,0.0116,0.0127,0.0129,0.0185,0.0185,0.0185,0.0144,0,0,0,0,0,0,-0.005,-0.0049,-0.0052,-0.0033,-0.003,-0.0028,-0.0006,-0.0001,0.0008,0.0011,0.0051,0.0058,0.0084,0.0109,0.0116,0.012,0.0131,0.0185,0.0185,0.0185,0.0146,0.0143,0.0141,0,0,0,0,0,-0.005,-0.0059,-0.0053,-0.0051,-0.0036,-0.0028,-0.0025,-0.0004,0.0008,0.0007,0.0035,0.0057,0.0115,0.0111,0.0119,0.0124,0.0185,0.0185,0.0185,0.0147,0.0143,0.0141,0,0,0,0,0,0,-0.0065,-0.0056,-0.0048,-0.0054,-0.0044,-0.0023,-0.0022,-0.0008,0.0013,0.0019,0.0055,0.0064,0.0086,0.0109,0.0104,0.0141,0.0155,0.0156,0.0123,0.012,0.0117,0.011,0.0133,0,0,0,0,0,-0.0072,-0.0076,-0.0063,-0.0067,-0.0064,-0.0044,-0.0038,-0.0025,-0.0005,0.0005,0.0032,0.0064,0.0092,0.0108,0.0133,0.0152,0.0178,0.0161,0.0158,0.0156,0.0155,0.0201,0.0203,0.0186,0.0186,0.0186,0,0,-0.0079,-0.0074,-0.0076,-0.007,-0.006,-0.006,-0.0038,-0.0034,-0.0029,0.0011,0.0025,0.0054,0.0094,0.0115,0.0127,0.0135,0.0173,0.0156,0.0154,0.0154,0.0202,0.0203,0.0205,0.0186,0.0186,0.0186,0,0,-0.0096,-0.0092,-0.0101,-0.0096,-0.0087,-0.0075,-0.0076,-0.0057,-0.0044,-0.0029,0.0004,0.0033,0.0068,0.0101,0.0122,0.0122,0.0156,0.0129,0.0113,0.0158,0.016,0.0162,0.0185,0.019,0.013,0.013,0.013,0,-0.0105,-0.0115,-0.0102,-0.0109,-0.0108,-0.0084,-0.0092,-0.0076,-0.0052,-0.0039,-0.003,0.0033,0.0065,0.0103,0.0102,0.0117,0.0139,0.012,0.0154,0.0157,0.016,0.0184,0.019,0.0128,0.0128,0.0129,0.0129,0,-0.0128,-0.0136,-0.0141,-0.0142,-0.0139,-0.0143,-0.0123,-0.0113,-0.0094,-0.0073,-0.0038,0.0005,0.0045,0.006,0.0081,0.0116,0.0123,0.0143,0.016,0.0159,0.0184,0.0191,0.0125,0.0126,0.0127,0.0127,0,0,-0.0146,-0.0157,-0.0159,-0.0168,-0.0157,-0.0159,-0.015,-0.0133,-0.0125,-0.0091,-0.0072,-0.002,0.0007,0.0033,0.0068,0.0106,0.014,0.0126,0.013,0.0146,0.0223,0.0201,0.0206,0.0165,0.0167,0.0167,0.0228,0,-0.0167,-0.0195,-0.0188,-0.0209,-0.0221,-0.0198,-0.0194,-0.0173,-0.0146,-0.0122,-0.0064,-0.0034,-0.0003,0.0015,0.0058,0.0122,0.0157,0.012,0.0225,0.0228,0.0206,0.0213,0.0171,0.0233,0.0234,0.0236,0.0236,0,-0.0191,-0.0207,-0.0236,-0.0248,-0.025,-0.0255,-0.0242,-0.0234,-0.0188,-0.0165,-0.0118,-0.0074,-0.0012,0.0011,0.0121,0.0095,0.0151,0.02,0.0204,0.0204,0.0219,0.0239,0.0249,0.0248,0.0247,0.0246,0.0245,0,-0.0217,-0.0239,-0.0265,-0.027,-0.0277,-0.0281,-0.0278,-0.0247,-0.0241,-0.019,-0.0175,-0.0094,-0.0056,0.0033,0.0126,0.0128,0.0241,0.0262,0.0295,0.0294,0.0313,0.0311,0.0338,0.0338,0.0338,0.0337,0.0337,0,-0.0243,-0.0265,-0.0283,-0.0299,-0.0328,-0.0315,-0.0329,-0.0311,-0.0282,-0.0272,-0.0201,-0.0171,-0.0048,0.003,0.0119,0.0219,0.024,0.0292,0.0312,0.0292,0.0287,0.0317,0.0314,0.034,0.0339,0.0339,0.0338,0,-0.027,-0.028,-0.0316,-0.0335,-0.0344,-0.0364,-0.0375,-0.0381,-0.0346,-0.0329,-0.0314,-0.0223,-0.0118,-0.0004,0.0139,0.0201,0.0305,0.0334,0.0286,0.0303,0.033,0.0324,0.0385,0.0385,0.0385,0.0385,0.0385,0,-0.0287,-0.0308,-0.0351,-0.0379,-0.0392,-0.0418,-0.0438,-0.0418,-0.0417,-0.0358,-0.035,-0.0252,-0.018,-0.0002,0.0123,0.0283,0.0305,0.0349,0.0357,0.0323,0.0337,0.0331,0.0325,0.0384,0.0384,0.0384,0.0384,0,-0.032,-0.0336,-0.0366,-0.0427,-0.046,-0.0495,-0.0513,-0.0516,-0.0481,-0.0451,-0.0375,-0.027,-0.0157,-0.0008,0.0105,0.0225,0.0319,0.0348,0.035,0.0358,0.0323,0.0335,0.033,0.0384,0.0384,0.0384,0.0384,0,-0.0344,-0.0376,-0.042,-0.047,-0.052,-0.0556,-0.0558,-0.0546,-0.0534,-0.0455,-0.043,-0.0291,-0.0204,-0.0038,0.0074,0.018,0.0216,0.025,0.0257,0.0259,0.0204,0.014,0.0163,0,0,0,0,0,-0.0366,-0.0408,-0.0462,-0.0518,-0.0568,-0.0593,-0.0605,-0.0594,-0.0554,-0.051,-0.0466,-0.0355,-0.0171,-0.0084,0.0019,0.0069,0.0226,0.0192,0.0265,0.0381,0.0381,0.0337,0,0,0,0,0,0,-0.0382,-0.0438,-0.0469,-0.0548,-0.0592,-0.0641,-0.0649,-0.062,-0.0583,-0.0524,-0.0426,-0.0347,-0.017,-0.0239,0.0012,0.0048,0.0106,0.0287,0.0289,0.0381,0.0381,0.0382,0.0336,0,0,0,0,0]}]]